[[{"header":{"parameterUnit":"m.s-1","parameterCategory":1,"la1":30.2991,"la2":30.254,"lo1":-89.0895,"lo2":-89.0444,"dy":0.0017,"dx":0.0017,"nx":28,"ny":28,"refTime":"2024-12-21T09:00:00:Z","depth":0,"parameterNumber":2,"parameterNumberName":"U-component_of_WINDS"},"data":[0,0,0,0,0,0,0,0,0,0,0,0,0,0,0,0,0,0,0,0,0,0,0,0,0,0,0,0,0,0,0,0,0,0,0,0,0,0,0,0,0,0,0,0,0,0,0,0,0,0,0,0,0,0,0,0,0,0,-2.0875,-2.0875,0,-2.0875,-2.0875,-2.0875,-2.0811,-2.0809,-2.0807,-2.0806,-2.0808,-2.081,-2.0812,0,0,0,0,0,0,0,0,0,0,0,0,0,-2.0821,-2.0823,-2.0875,-2.0875,-2.0875,-2.0875,-2.0875,-2.0875,-2.0811,-2.0809,-2.0807,-2.0805,-2.0808,-2.081,-2.0812,0,0,0,0,0,0,0,0,0,0,0,0,0,-2.0836,-2.0823,-2.0875,-2.0843,-2.084,-2.0875,-2.0875,-2.0875,-2.0811,-2.0809,-2.0806,-2.0804,-2.0807,-2.0809,-2.0812,-2.0879,0,0,-2.082,-2.0821,0,0,0,0,0,0,0,0,-2.0835,-2.0838,-2.0848,-2.0845,-2.0842,-2.084,-2.0857,-2.0877,-2.0812,-2.0822,-2.0806,-2.0803,-2.0821,-2.0822,-2.0828,-2.0879,-2.0879,-2.082,-2.0821,-2.0822,-2.0823,0,0,0,0,0,0,0,-2.0834,-2.0837,-2.0875,-2.0848,-2.0845,-2.0829,-2.0829,-2.0861,-2.0836,-2.0821,-2.0817,-2.0817,-2.0819,-2.0826,-2.0828,-2.0879,-2.082,-2.0822,-2.0823,-2.0824,-2.0986,-2.0989,0,0,0,0,0,0,-2.0837,-2.0837,-2.0875,-2.0875,-2.0832,-2.0832,-2.0831,-2.0844,-2.0836,-2.0832,-2.082,-2.0814,-2.0823,-2.0825,-2.0828,-2.0907,-2.0822,-2.0825,-2.0826,-2.0983,-2.0987,-2.099,0,0,0,0,0,0,-2.0836,-2.0841,-2.0875,-2.0855,-2.0858,-2.0836,-2.085,-2.0845,-2.0851,-2.0834,-2.083,-2.0831,-2.0821,-2.0824,-2.0867,-2.0906,-2.0826,-2.0828,-2.098,-2.0984,-2.0988,-2.1064,0,0,0,0,0,0,-2.0835,-2.0841,-2.0866,-2.0856,-2.0859,-2.0914,-2.0852,-2.0847,-2.0856,-2.0849,-2.0844,-2.084,-2.0819,-2.0863,-2.0869,-2.0908,-2.083,-2.0976,-2.0982,-2.0987,-2.1058,-2.1071,-2.1081,0,0,0,0,0,-2.0833,-2.0887,-2.0867,-2.0872,-2.0889,-2.0916,-2.0918,-2.0892,-2.0859,-2.0884,-2.0873,-2.0841,-2.09,-2.0868,-2.0874,-2.0914,-2.0974,-2.098,-2.0986,-2.1053,-2.1068,-2.1081,0,0,0,0,0,0,-2.0903,-2.0886,-2.0863,-2.0915,-2.0918,-2.0905,-2.0936,-2.0909,-2.0921,-2.0914,-2.0882,-2.0881,-2.0929,-2.0925,-2.089,-2.0979,-2.0931,-2.0939,-2.098,-2.0994,-2.1005,-2.1006,-2.0832,0,0,0,0,0,-2.0924,-2.0947,-2.093,-2.0979,-2.0981,-2.0958,-2.0969,-2.0949,-2.095,-2.0951,-2.0943,-2.0946,-2.0966,-2.0979,-2.0996,-2.1057,-2.1056,-2.1087,-2.1099,-2.1108,-2.1116,-2.115,-2.1164,-2.101,-2.101,-2.101,0,0,-2.0969,-2.0962,-2.0979,-2.0992,-2.0992,-2.1017,-2.096,-2.0988,-2.1007,-2.0955,-2.0996,-2.099,-2.0991,-2.1044,-2.1067,-2.1042,-2.1158,-2.1116,-2.1124,-2.1127,-2.1158,-2.1172,-2.1185,-2.1015,-2.1014,-2.1013,0,0,-2.1064,-2.106,-2.1101,-2.1101,-2.1101,-2.1086,-2.1095,-2.1087,-2.1081,-2.1121,-2.1083,-2.1105,-2.1138,-2.1142,-2.1148,-2.1244,-2.1215,-2.125,-2.1311,-2.1344,-2.1356,-2.1367,-2.1403,-2.1416,-2.1258,-2.1258,-2.1258,0,-2.112,-2.1156,-2.1125,-2.1157,-2.1164,-2.1118,-2.1159,-2.1161,-2.1167,-2.1174,-2.1146,-2.1188,-2.1186,-2.1239,-2.1263,-2.1269,-2.128,-2.1252,-2.1357,-2.1367,-2.1377,-2.1411,-2.1424,-2.1262,-2.1262,-2.1261,-2.1261,0,-2.1226,-2.1251,-2.1284,-2.129,-2.1301,-2.1337,-2.1313,-2.1328,-2.1307,-2.1295,-2.1336,-2.1332,-2.1348,-2.1358,-2.1338,-2.1409,-2.1394,-2.1362,-2.1314,-2.1396,-2.1428,-2.1441,-2.1269,-2.1267,-2.1266,-2.1265,0,0,-2.1366,-2.1354,-2.1367,-2.137,-2.1366,-2.1386,-2.142,-2.1435,-2.1449,-2.1455,-2.1484,-2.1514,-2.1484,-2.1491,-2.147,-2.1499,-2.1578,-2.1463,-2.1463,-2.1487,-2.1659,-2.1685,-2.17,-2.1558,-2.156,-2.1562,-2.1659,0,-2.1459,-2.1517,-2.1491,-2.1552,-2.1576,-2.1532,-2.1562,-2.1564,-2.1554,-2.1573,-2.1562,-2.1584,-2.1542,-2.1547,-2.1573,-2.1563,-2.1612,-2.1555,-2.1587,-2.1588,-2.159,-2.1716,-2.1744,-2.1836,-2.1671,-2.1673,-2.1675,0,-2.1576,-2.1586,-2.165,-2.1643,-2.1652,-2.168,-2.1692,-2.171,-2.1711,-2.1702,-2.171,-2.1683,-2.1717,-2.1668,-2.1716,-2.1678,-2.1689,-2.1686,-2.1689,-2.1692,-2.1638,-2.1726,-2.1864,-2.1879,-2.1694,-2.1692,-2.1691,0,-2.1675,-2.1704,-2.1746,-2.175,-2.1742,-2.1763,-2.176,-2.1759,-2.177,-2.178,-2.1787,-2.1802,-2.1811,-2.1823,-2.1801,-2.1767,-2.1853,-2.1801,-2.1848,-2.1849,-2.187,-2.1869,-2.2014,-2.1874,-2.1873,-2.1873,-2.1873,0,-2.1783,-2.1824,-2.1791,-2.1817,-2.1862,-2.1831,-2.1877,-2.187,-2.187,-2.1895,-2.1857,-2.1881,-2.185,-2.1871,-2.1854,-2.1898,-2.1901,-2.1896,-2.1892,-2.1901,-2.1902,-2.1909,-2.1903,-2.1877,-2.1876,-2.1875,-2.1875,0,-2.1902,-2.188,-2.1924,-2.1913,-2.1911,-2.1945,-2.1936,-2.196,-2.1947,-2.1979,-2.1985,-2.1965,-2.1989,-2.1967,-2.199,-2.1978,-2.2037,-2.2022,-2.2037,-2.2034,-2.2082,-2.2079,-2.2239,-2.2259,-2.2103,-2.2105,-2.2106,0,-2.1973,-2.2004,-2.1996,-2.201,-2.201,-2.2032,-2.2043,-2.2014,-2.2027,-2.2031,-2.2056,-2.2076,-2.2091,-2.2131,-2.2119,-2.2137,-2.2123,-2.2178,-2.2126,-2.2135,-2.2127,-2.2126,-2.213,-2.219,-2.2191,-2.2193,-2.2194,0,-2.2103,-2.2091,-2.2108,-2.2122,-2.2136,-2.2145,-2.2152,-2.2166,-2.2136,-2.2152,-2.2176,-2.2188,-2.2211,-2.2232,-2.2246,-2.2244,-2.2216,-2.221,-2.2222,-2.2233,-2.2242,-2.224,-2.2068,-2.2207,-2.2206,-2.2205,-2.2204,-2.2204,-2.2202,-2.2228,-2.2227,-2.2247,-2.2249,-2.2256,-2.2279,-2.2268,-2.2287,-2.2304,-2.2285,-2.2314,-2.2315,-2.2331,-2.2333,-2.2356,-2.2333,-2.235,-2.2355,-2.236,-2.2368,-2.2236,-2.2358,-2.2358,-2.2357,-2.2357,-2.2357,0,-2.2332,-2.2329,-2.2348,-2.2358,-2.2375,-2.2344,-2.235,-2.2366,-2.2392,-2.2395,-2.2411,-2.2439,-2.2459,-2.2449,-2.2467,-2.2488,-2.2475,-2.2494,-2.2493,-2.2494,-2.2387,-2.2375,-2.2504,-2.2504,-2.2504,-2.2504,-2.2504,-2.2504,-2.2402,-2.2445,-2.2433,-2.2476,-2.2473,-2.2501,-2.2507,-2.2514,-2.2516,-2.2549,-2.2566,-2.2558,-2.2556,-2.2574,-2.2592,-2.2588,-2.2598,-2.2622,-2.2614,-2.2515,-2.2501,-2.2487,-2.2476,-2.2624,-2.2624,-2.2719,-2.272,-2.2721]},{"header":{"parameterUnit":"m.s-1","parameterCategory":1,"la1":30.2991,"la2":30.254,"lo1":-89.0895,"lo2":-89.0444,"dy":0.0017,"dx":0.0017,"nx":28,"ny":28,"refTime":"2024-12-21T09:00:00:Z","depth":0,"parameterNumber":3,"parameterNumberName":"V-component_of_WINDS"},"data":[0,0,0,0,0,0,0,0,0,0,0,0,0,0,0,0,0,0,0,0,0,0,0,0,0,0,0,0,0,0,0,0,0,0,0,0,0,0,0,0,0,0,0,0,0,0,0,0,0,0,0,0,0,0,0,0,0,0,-2.1097,-2.1098,0,-2.1136,-2.1136,-2.1136,-2.1114,-2.1113,-2.1112,-2.1111,-2.1149,-2.1151,-2.1153,0,0,0,0,0,0,0,0,0,0,0,0,0,-2.1004,-2.1005,-2.1097,-2.1098,-2.1098,-2.1135,-2.1136,-2.1136,-2.1114,-2.1113,-2.1112,-2.111,-2.1148,-2.1151,-2.1153,0,0,0,0,0,0,0,0,0,0,0,0,0,-2.1043,-2.1006,-2.1097,-2.1092,-2.1091,-2.1135,-2.1136,-2.1137,-2.1115,-2.1113,-2.1111,-2.111,-2.1148,-2.1151,-2.1154,-2.1205,0,0,-2.1163,-2.1164,0,0,0,0,0,0,0,0,-2.1041,-2.1047,-2.1092,-2.1092,-2.1092,-2.1118,-2.1117,-2.1159,-2.1115,-2.1106,-2.1111,-2.1109,-2.114,-2.1144,-2.1154,-2.1207,-2.1208,-2.1163,-2.1165,-2.1166,-2.1167,0,0,0,0,0,0,0,-2.1038,-2.1045,-2.1112,-2.1093,-2.1093,-2.1087,-2.1091,-2.1125,-2.1132,-2.1106,-2.1105,-2.111,-2.114,-2.1152,-2.1155,-2.1209,-2.1163,-2.1166,-2.1168,-2.1169,-2.1305,-2.1307,0,0,0,0,0,0,-2.1036,-2.1043,-2.1111,-2.1113,-2.1062,-2.109,-2.1094,-2.1112,-2.1131,-2.1133,-2.1111,-2.1109,-2.1147,-2.1152,-2.1156,-2.1219,-2.1166,-2.1169,-2.1171,-2.1304,-2.1306,-2.1308,0,0,0,0,0,0,-2.1034,-2.1042,-2.111,-2.1078,-2.1086,-2.1093,-2.1113,-2.1113,-2.1125,-2.1135,-2.1136,-2.1122,-2.1146,-2.1152,-2.1193,-2.122,-2.1171,-2.1173,-2.1302,-2.1304,-2.1307,-2.1343,0,0,0,0,0,0,-2.1032,-2.1042,-2.1062,-2.1078,-2.1088,-2.1146,-2.1114,-2.1115,-2.113,-2.1127,-2.1145,-2.1147,-2.1145,-2.1189,-2.1196,-2.1223,-2.1176,-2.1299,-2.1303,-2.1306,-2.1339,-2.1346,-2.1352,0,0,0,0,0,-2.1028,-2.107,-2.1063,-2.1071,-2.1113,-2.1148,-2.1153,-2.1151,-2.1132,-2.1152,-2.1159,-2.1146,-2.1215,-2.1193,-2.1201,-2.1229,-2.1298,-2.1302,-2.1306,-2.1336,-2.1345,-2.1352,0,0,0,0,0,0,-2.1056,-2.1072,-2.1064,-2.1113,-2.1129,-2.1144,-2.1169,-2.116,-2.1182,-2.1178,-2.1174,-2.1178,-2.1222,-2.1229,-2.1204,-2.128,-2.1253,-2.1259,-2.1274,-2.1282,-2.1289,-2.1287,-2.1178,0,0,0,0,0,-2.1067,-2.1095,-2.1107,-2.1149,-2.1157,-2.1162,-2.1177,-2.1174,-2.1191,-2.1197,-2.1207,-2.1223,-2.1249,-2.1265,-2.1289,-2.134,-2.1344,-2.1363,-2.1369,-2.1375,-2.138,-2.1408,-2.1417,-2.1321,-2.1321,-2.1321,0,0,-2.1092,-2.1104,-2.1122,-2.1155,-2.1167,-2.1195,-2.1168,-2.1199,-2.122,-2.1202,-2.1242,-2.1249,-2.1267,-2.1313,-2.1334,-2.1321,-2.1408,-2.138,-2.1384,-2.1387,-2.1414,-2.1423,-2.1431,-2.1324,-2.1323,-2.1323,0,0,-2.1151,-2.1163,-2.1199,-2.1212,-2.1232,-2.1234,-2.1243,-2.1259,-2.1264,-2.1303,-2.1291,-2.1315,-2.1359,-2.1373,-2.1385,-2.145,-2.1439,-2.1457,-2.1492,-2.152,-2.1527,-2.1534,-2.1558,-2.1567,-2.1462,-2.1463,-2.1463,0,-2.1179,-2.1222,-2.1219,-2.1251,-2.1267,-2.1251,-2.1288,-2.1301,-2.1327,-2.1337,-2.1322,-2.1377,-2.1388,-2.1438,-2.1454,-2.1464,-2.1474,-2.1456,-2.1526,-2.1533,-2.1539,-2.1563,-2.1571,-2.1465,-2.1465,-2.1464,-2.1464,0,-2.1256,-2.1286,-2.1313,-2.1339,-2.1357,-2.1391,-2.1393,-2.1411,-2.1406,-2.1411,-2.1451,-2.1464,-2.1491,-2.1502,-2.1497,-2.1551,-2.1542,-2.1527,-2.15,-2.1551,-2.1573,-2.1581,-2.1468,-2.1467,-2.1467,-2.1466,0,0,-2.1335,-2.1359,-2.1369,-2.1381,-2.1401,-2.1424,-2.1457,-2.1484,-2.15,-2.1518,-2.1546,-2.1584,-2.157,-2.1584,-2.158,-2.1604,-2.1656,-2.1586,-2.1586,-2.16,-2.1717,-2.173,-2.174,-2.1648,-2.165,-2.1651,-2.1716,0,-2.1397,-2.1457,-2.1455,-2.151,-2.1538,-2.1524,-2.1553,-2.1568,-2.1573,-2.1597,-2.1601,-2.1628,-2.1607,-2.1616,-2.1639,-2.1645,-2.168,-2.164,-2.1675,-2.1677,-2.1673,-2.1751,-2.1765,-2.1826,-2.1725,-2.1726,-2.1727,0,-2.1478,-2.1499,-2.1558,-2.1574,-2.1586,-2.1612,-2.1637,-2.1659,-2.1676,-2.1678,-2.1694,-2.1687,-2.1721,-2.1692,-2.1739,-2.1712,-2.1726,-2.1731,-2.1733,-2.1738,-2.1706,-2.176,-2.1845,-2.1855,-2.174,-2.1739,-2.1738,0,-2.1531,-2.1575,-2.1616,-2.1626,-2.1646,-2.1665,-2.1674,-2.1689,-2.1705,-2.1726,-2.1736,-2.1761,-2.1774,-2.1793,-2.1792,-2.1771,-2.184,-2.1811,-2.1843,-2.1843,-2.186,-2.1859,-2.195,-2.1866,-2.1866,-2.1866,-2.1866,0,-2.1602,-2.1638,-2.164,-2.1666,-2.1706,-2.1703,-2.1743,-2.175,-2.1764,-2.179,-2.1778,-2.1803,-2.18,-2.1825,-2.1824,-2.1864,-2.187,-2.1872,-2.1872,-2.1874,-2.1874,-2.1885,-2.1881,-2.1868,-2.1868,-2.1867,-2.1867,0,-2.1669,-2.1672,-2.1716,-2.1731,-2.1735,-2.1765,-2.1778,-2.1801,-2.1805,-2.1838,-2.1846,-2.1851,-2.188,-2.188,-2.1913,-2.1913,-2.1962,-2.1956,-2.1956,-2.1956,-2.1988,-2.1986,-2.2091,-2.2105,-2.201,-2.2011,-2.2012,0,-2.1715,-2.1743,-2.1761,-2.1778,-2.1789,-2.1816,-2.1833,-2.183,-2.1848,-2.1869,-2.1891,-2.1918,-2.1941,-2.1987,-2.1994,-2.2019,-2.2014,-2.2049,-2.2018,-2.202,-2.2017,-2.2016,-2.2019,-2.2056,-2.2057,-2.2058,-2.2058,0,-2.1796,-2.1796,-2.1821,-2.1846,-2.1866,-2.1886,-2.1904,-2.1919,-2.1918,-2.1938,-2.1968,-2.1985,-2.2019,-2.2047,-2.2071,-2.208,-2.207,-2.2068,-2.2077,-2.2081,-2.2081,-2.2083,-2.1975,-2.2066,-2.2065,-2.2065,-2.2064,-2.2064,-2.1855,-2.188,-2.1897,-2.1925,-2.1938,-2.1956,-2.1979,-2.1985,-2.201,-2.2038,-2.2034,-2.2068,-2.2083,-2.2115,-2.2126,-2.2152,-2.214,-2.2152,-2.2156,-2.2159,-2.2164,-2.2075,-2.2156,-2.2156,-2.2155,-2.2155,-2.2155,0,-2.1937,-2.1947,-2.1973,-2.1999,-2.2021,-2.2009,-2.2029,-2.2048,-2.2078,-2.2093,-2.2116,-2.215,-2.2177,-2.2185,-2.2211,-2.223,-2.2226,-2.2237,-2.2237,-2.2239,-2.2172,-2.2163,-2.224,-2.224,-2.224,-2.224,-2.224,-2.224,-2.1983,-2.2024,-2.2026,-2.2074,-2.2084,-2.2117,-2.2129,-2.2145,-2.2158,-2.2197,-2.2219,-2.2224,-2.2237,-2.2264,-2.2289,-2.229,-2.2301,-2.2315,-2.2315,-2.2252,-2.2244,-2.2236,-2.2227,-2.2316,-2.2317,-2.238,-2.238,-2.2381]}]]